This is the latest recevied weather packets stored in our database for station/object KB1QVF. If no packets are shown the sender has not sent any weather packets the latest 10 day(s).
| Time | Temp. | Humidity | Pressure | Rain* | Wind** | Luminosity | Snow |
|---|---|---|---|---|---|---|---|
| 1777873316 | 4.44° C | 57% | 1013.1 hPa | 0 mm | - | 0 W/m² | - |
| 1777873013 | 5° C | 57% | 1013.1 hPa | 0 mm | - | 0 W/m² | - |
| 1777872710 | 5° C | 56% | 1013.1 hPa | 0 mm | - | 0 W/m² | - |
| 1777872407 | 5° C | 56% | 1012.9 hPa | 0 mm | - | 0 W/m² | - |
| 1777872105 | 5° C | 57% | 1013.2 hPa | 0 mm | - | 0 W/m² | - |
| 1777871802 | 5.56° C | 54% | 1013.2 hPa | 0 mm | - | 0 W/m² | - |
| 1777871498 | 5.56° C | 53% | 1013.2 hPa | 0 mm | - | 0 W/m² | - |
| 1777871195 | 5.56° C | 54% | 1013.3 hPa | 0 mm | - | 0 W/m² | - |
| 1777870892 | 5.56° C | 55% | 1013.1 hPa | 0 mm | - | 0 W/m² | - |
| 1777870589 | 5° C | 55% | 1013.4 hPa | 0 mm | - | 0 W/m² | - |
| 1777870289 | 5° C | 54% | 1013.5 hPa | 0 mm | - | 0 W/m² | - |
| 1777869987 | 5° C | 56% | 1013.5 hPa | 0 mm | - | 0 W/m² | - |
| 1777869684 | 5° C | 56% | 1013.6 hPa | 0 mm | - | 0 W/m² | - |
| 1777869381 | 5° C | 54% | 1013.5 hPa | 0 mm | - | 0 W/m² | - |
| 1777869078 | 5° C | 55% | 1013.4 hPa | 0 mm | - | 0 W/m² | - |
| 1777868775 | 5° C | 55% | 1013.3 hPa | 0 mm | - | 0 W/m² | - |
| 1777868472 | 5° C | 54% | 1013.4 hPa | 0 mm | - | 0 W/m² | - |
| 1777868167 | 5.56° C | 55% | 1013.4 hPa | 0 mm | - | 0 W/m² | - |
| 1777867864 | 5.56° C | 53% | 1013.3 hPa | 0 mm | - | 0 W/m² | - |
| 1777867562 | 5° C | 55% | 1013.3 hPa | 0 mm | - | 0 W/m² | - |
| 1777867258 | 5° C | 55% | 1013.3 hPa | 0 mm | - | 0 W/m² | - |
| 1777866955 | 5° C | 56% | 1013.2 hPa | 0 mm | - | 0 W/m² | - |
| 1777866651 | 5.56° C | 54% | 1013 hPa | 0 mm | - | 0 W/m² | - |
| 1777866349 | 5° C | 56% | 1013 hPa | 0 mm | - | 0 W/m² | - |
| 1777866046 | 4.44° C | 59% | 1012.9 hPa | 0 mm | - | 0 W/m² | - |
* Rain latest hour (hover to see other rain measurements)
** Current wind speed in m/s (hover to see current wind gust speed)